Location: Bednik
(45.3500°N, 16.3833°E)
Time: 05:59:28
(UTC+00:00)

CZ-4 R/B - Pass Details

Date: 08 August 2020
Orbit: 682 x 752 km, 98.5° (Epoch: 26 September)

Event Time Altitude Azimuth Distance (km) Brightness Sun altitude
Rises 23:16:22 0° 15° (NNE) 3,189 8.4 -28.8°
Reaches altitude 10° 23:18:40 10° 17° (NNE) 2,269 7.3 -28.7°
Enters shadow 23:22:58 63° 47° (NE) 840 4.2 -28.6°
